Home > Weather > Nancy > Past weeks

Flag for France Past Weather in Nancy, Lorraine, France — Yesterday and Last 2 Weeks

Now
68 °F

Clear.


Feels Like: 68 °F
Forecast: 64 / 93 °F
Wind: 3 mph from Southeast

Location: Nancy / Ochey

Current Time: Aug 25, 2016 at 3:20:24 AM

Latest Report: Aug 25, 2016 at 2:30 AM


Visibility: 10 mi

Pressure: 30.07 "Hg

Humidity: 78%

Dew Point: 61 °F

Location of NancyLocation

Past Weather in Nancy — Graph

°F

Nancy Temperature Yesterday

Maximum temperature yesterday: 88 °F (at 3:30 PM)
Minimum temperature yesterday: 59 °F (at 7:00 AM)
Average temperature yesterday: 75 °F

High & Low Weather Summary for the Past Weeks

 TemperatureHumidityPressure
High88 °F (Aug 24, 3:30 PM)100% (Aug 10, 6:30 AM)30.39 "Hg (Aug 10, 6:30 AM)
Low43 °F (Aug 11, 6:30 AM)31% (Aug 24, 4:00 PM)29.80 "Hg (Aug 18, 7:30 AM)
Average66 °F70%30.13 "Hg
* Reported Aug 10 2:00 AM — Aug 25 2:00 AM, Nancy, Weather by CustomWeather, © 2016

Note: Actual official high and low records may vary slightly from our data, if they occured in-between our weather recording intervals... More about our weather records

Advertising

Nancy Weather History for the Previous 24 Hours

Scroll right to see more
 ConditionsComfort  
Time TempWeatherWind HumidityBarometerVisibility
2:00 AM
Thu, Aug 25
68 °FClear.5 mph78%30.07 "Hg10 mi
1:30 AM70 °FClear.5 mph73%30.09 "Hg10 mi
1:00 AM72 °FClear.6 mph69%30.09 "Hg10 mi
12:30 AM72 °FClear.2 mph69%30.09 "Hg10 mi
12:00 AM72 °FClear.No wind69%30.09 "Hg10 mi
11:30 PM
Wed, Aug 24
73 °FClear.6 mph65%30.09 "Hg10 mi
11:00 PM75 °FClear.6 mph61%30.09 "Hg10 mi
10:30 PM75 °FPassing clouds.7 mph61%30.09 "HgN/A
10:00 PM75 °FClear.7 mph61%30.09 "Hg10 mi
9:30 PM77 °FSunny.8 mph61%30.09 "Hg10 mi
9:00 PM79 °FSunny.8 mph54%30.09 "Hg10 mi
8:30 PM81 °FSunny.7 mph48%30.09 "Hg10 mi
8:00 PM84 °FSunny.7 mph43%30.09 "Hg10 mi
7:30 PM86 °FSunny.6 mph35%30.09 "Hg10 mi
7:00 PM88 °FSunny.7 mph31%30.09 "Hg10 mi
6:30 PM88 °FPassing clouds.7 mph33%30.09 "HgN/A
6:00 PM88 °FPassing clouds.8 mph33%30.12 "HgN/A
5:30 PM88 °FPassing clouds.7 mph33%30.12 "HgN/A
5:00 PM88 °FPassing clouds.6 mph35%30.12 "HgN/A
4:30 PM88 °FPassing clouds.6 mph31%30.12 "HgN/A
4:00 PM88 °FPassing clouds.6 mph31%30.12 "HgN/A
3:30 PM88 °FSunny.5 mph33%30.15 "Hg10 mi
3:00 PM86 °FPassing clouds.3 mph40%30.15 "HgN/A
2:30 PM86 °FSunny.5 mph43%30.15 "Hg10 mi
2:00 PM84 °FSunny.5 mph48%30.15 "Hg10 mi
1:30 PM84 °FPassing clouds.5 mph48%30.18 "HgN/A
1:00 PM84 °FSunny.5 mph45%30.18 "Hg10 mi
12:30 PM81 °FPassing clouds.3 mph51%30.18 "HgN/A
12:00 PM81 °FPassing clouds.6 mph51%30.18 "HgN/A
11:30 AM81 °FPassing clouds.7 mph48%30.18 "HgN/A
11:00 AM79 °FSunny.7 mph54%30.18 "Hg10 mi
10:30 AM75 °FPassing clouds.5 mph61%30.18 "HgN/A
10:00 AM72 °FPassing clouds.6 mph65%30.21 "HgN/A
9:30 AM70 °FSunny.7 mph73%30.21 "Hg10 mi
9:00 AM68 °FSunny.7 mph78%30.21 "Hg10 mi
8:30 AM66 °FSunny.7 mph78%30.21 "Hg10 mi
8:00 AM64 °FSunny.No wind83%30.21 "Hg10 mi
7:30 AM59 °FClear.3 mph94%30.21 "Hg10 mi
7:00 AM59 °FClear.No wind88%30.21 "Hg10 mi
6:30 AM61 °FClear.No wind88%30.18 "Hg10 mi
6:00 AM61 °FClear.No wind88%30.18 "Hg10 mi
5:30 AM63 °FClear.2 mph83%30.18 "Hg10 mi
5:00 AM61 °FClear.No wind94%30.18 "Hg10 mi
4:30 AM61 °FClear.No wind94%30.18 "Hg10 mi
4:00 AM61 °FClear.No wind88%30.18 "Hg10 mi
3:30 AM63 °FClear.2 mph88%30.21 "Hg10 mi
3:00 AM64 °FClear.2 mph83%30.21 "Hg10 mi
Weather by CustomWeather, © 2016

See weather overviewHow to use our weather pages